Location: Bremen
(53.0830°N, 8.8000°E)
Time: 09:11:29
(UTC+02:00)

ISS - Visible Passes

Search period start: 11 May 2021 00:00
Search period end: 21 May 2021 00:00
Orbit: 418 x 421 km, 51.6° (Epoch: 11 May)

Date Brightness Start Highest point End Pass type
(mag) Time Alt. Az. Time Alt. Az. Time Alt. Az.
11 May -3.4 02:04:21 47° SE 02:04:21 47° SE 02:07:09 10° E visible
11 May -3.8 03:37:17 11° W 03:40:31 68° S 03:43:52 10° ESE visible
12 May -2.0 01:18:16 22° E 01:18:16 22° E 01:19:42 10° E visible
12 May -3.9 02:51:12 24° W 02:53:06 70° S 02:56:29 10° E visible
12 May -3.3 04:26:31 10° W 04:29:44 42° SSW 04:32:57 10° SE visible
13 May -1.1 00:32:07 11° E 00:32:07 11° E 00:32:14 10° E visible
13 May -3.9 02:05:02 51° SW 02:05:41 68° S 02:09:03 10° E visible
13 May -3.6 03:39:04 10° W 03:42:22 52° SSW 03:45:40 10° ESE visible
14 May -3.7 01:18:38 58° SE 01:18:38 58° SE 01:21:38 10° E visible
14 May -3.8 02:51:38 10° W 02:54:59 61° S 02:58:19 10° ESE visible
14 May -2.6 04:28:36 10° W 04:31:26 25° SSW 04:34:16 10° SSE visible
14 May -2.4 22:52:01 10° SSW 22:54:32 20° SSE 22:55:37 17° ESE visible
15 May -3.7 00:27:35 10° WSW 00:30:53 54° SSE 00:34:12 10° E visible
15 May -3.9 02:04:12 10° W 02:07:34 68° S 02:10:56 10° ESE visible
15 May -3.1 03:41:02 10° W 03:44:07 33° SSW 03:47:12 10° SE visible
15 May -2.0 22:05:25 10° S 22:07:17 14° SE 22:09:11 10° ESE visible
15 May -3.5 23:40:17 10° SW 23:43:30 44° SSE 23:46:45 10° E visible
16 May -3.9 01:16:47 10° W 01:20:09 70° S 01:23:32 10° E visible
16 May -3.4 02:53:34 10° W 02:56:47 42° SSW 03:00:00 10° SE visible
16 May -1.9 04:31:17 10° WSW 04:32:58 13° SW 04:34:39 10° S visible
16 May -3.1 22:53:04 10° SW 22:56:09 34° SSE 22:59:16 10° E visible
17 May -3.9 00:29:22 10° WSW 00:32:44 69° S 00:36:05 10° E visible
17 May -3.7 02:06:06 10° W 02:09:24 52° SSW 02:12:42 10° ESE visible
17 May -2.3 03:43:19 10° W 03:45:44 18° SW 03:48:09 10° S visible
17 May -2.7 22:05:58 10° SSW 22:08:50 26° SSE 22:11:44 10° E visible
17 May -3.8 23:41:58 10° WSW 23:45:19 63° S 23:48:39 10° E visible
18 May -3.8 01:18:40 10° W 01:22:01 61° S 01:22:56 41° SE visible
18 May -1.3 02:55:38 10° W 02:55:49 11° W 02:55:49 11° W visible
18 May -3.7 22:54:37 10° WSW 22:57:55 54° SSE 23:01:14 10° E visible
19 May -3.9 00:31:15 10° W 00:34:36 67° S 00:36:31 23° ESE visible
19 May -2.0 02:08:05 10° W 02:09:26 20° WSW 02:09:26 20° WSW visible
19 May -3.4 22:07:19 10° SW 22:10:31 44° SSE 22:13:46 10° E visible
19 May -3.9 23:43:49 10° W 23:47:10 70° S 23:50:21 11° E visible
20 May -3.1 01:20:35 10° W 01:23:16 38° SW 01:23:16 38° SW visible
20 May -3.8 22:56:24 10° WSW 22:59:44 69° S 23:03:07 10° E visible
